En Direct

LFST 250630Z AUTO 20004KT 5000 -SN BR FEW004 SCT008 BKN014 00/M00 Q1000 TEMPO SCT020TCU


TAF TAF LFST 250500Z 2506/2606 20006KT 9999 SCT020 BKN030 TEMPO 2506/2508 4000 -SHSN BKN005 SCT020TCU TEMPO 2508/2520 4000 -SHRASN SCT020TCU BECMG 2512/2515 30010KT

Nos Avions

7 avions disponibles et entretenus par un atelier agréé, permettant tous types de vols (formation, promenade, voyage…)

l'école de pilotage

PPL, LAPL, Vol de nuit, SEP… Toutes ces formations sont dispensées par nos instructeurs bénévoles.
Formation Théorique Mermoz via la FFA

Notre Plateforme

Nous sommes basés à l’aéroport de Strasbourg-Entzheim (LFST) en plein coeur de l’Alsace qui permet de voyager rapidement outre Rhin, mais également de profiter des paysages variés

Notre Actualité

Retrouvez tous nos articles dans l’onglet Actualités

Nos réseaux

Suivez-nous sur les réseaux sociaux